When you browse on this site, cookies collect data to enhance your experience and personalize the content and advertising you see.
Visit our Privacy Policy to learn more. By continuing to use the site, you agree to this use of cookies and data.
  • In Schweiz
  • Länderverzeichnis
  • Für 7 Tage
  • Wassertemperatur
  • Satellitenkarten
  • Wetterkarte
  • Widgets
  • user-avatar
    Anmelden

    Stündliche Wetter Victoria

    Heute, 24 Januar, Donnerstag

    Zeit Temperatur Niederschläge Wind Luftdruck Luftfeuchtigkeit
    00:00 +23°C° 0 mm 4 m/S 747 mmHg 65%
    01:00 +22°C° 0 mm 4 m/S 747 mmHg 67%
    02:00 +22°C° 0 mm 4 m/S 747 mmHg 68%
    03:00 +22°C° 0 mm 4 m/S 747 mmHg 68%
    04:00 +22°C° 0 mm 3 m/S 747 mmHg 68%
    05:00 +24°C° 0 mm 3 m/S 748 mmHg 64%
    06:00 +25°C° 0 mm 3 m/S 748 mmHg 60%
    07:00 +26°C° 0 mm 4 m/S 748 mmHg 56%
    08:00 +29°C° 0 mm 4 m/S 748 mmHg 50%
    09:00 +33°C° 0 mm 4 m/S 748 mmHg 43%
    10:00 +35°C° 0 mm 4 m/S 747 mmHg 38%
    11:00 +37°C° 0 mm 4 m/S 747 mmHg 33%
    12:00 +40°C° 0 mm 4 m/S 746 mmHg 27%
    13:00 +42°C° 0 mm 3 m/S 746 mmHg 22%
    14:00 +43°C° 0 mm 3 m/S 745 mmHg 21%
    15:00 +44°C° 0 mm 3 m/S 745 mmHg 19%
    16:00 +44°C° 0 mm 3 m/S 744 mmHg 17%
    17:00 +43°C° 0 mm 3 m/S 744 mmHg 19%
    18:00 +42°C° 0 mm 3 m/S 744 mmHg 21%
    19:00 +40°C° 0 mm 3 m/S 744 mmHg 22%
    20:00 +40°C° 0 mm 4 m/S 744 mmHg 24%
    21:00 +37°C° 0 mm 4 m/S 744 mmHg 25%
    22:00 +36°C° 0 mm 4 m/S 744 mmHg 27%
    23:00 +35°C° 0 mm 4 m/S 744 mmHg 27%

    Morgen, 25 Januar, Freitag

    Zeit Temperatur Niederschläge Wind Luftdruck Luftfeuchtigkeit
    00:00 +35°C° 0 mm 5 m/S 744 mmHg 27%
    01:00 +35°C° 0 mm 5 m/S 744 mmHg 27%
    02:00 +34°C° 0 mm 6 m/S 744 mmHg 32%
    03:00 +34°C° 0 mm 6 m/S 744 mmHg 36%
    04:00 +33°C° 0 mm 6 m/S 744 mmHg 41%
    05:00 +34°C° 0 mm 7 m/S 744 mmHg 41%
    06:00 +34°C° 0 mm 7 m/S 744 mmHg 41%
    07:00 +34°C° 0 mm 7 m/S 745 mmHg 41%
    08:00 +38°C° 0 mm 7 m/S 745 mmHg 35%
    09:00 +40°C° 0 mm 7 m/S 745 mmHg 30%
    10:00 +43°C° 0 mm 7 m/S 745 mmHg 25%
    11:00 +45°C° 0 mm 7 m/S 744 mmHg 21%
    12:00 +47°C° 0 mm 7 m/S 743 mmHg 18%
    13:00 +50°C° 0 mm 7 m/S 743 mmHg 14%
    14:00 +48°C° 0 mm 5 m/S 742 mmHg 15%
    15:00 +45°C° 0 mm 4 m/S 741 mmHg 16%
    16:00 +43°C° 0 mm 2 m/S 741 mmHg 17%
    17:00 +42°C° 0 mm 2 m/S 741 mmHg 18%
    18:00 +43°C° 0 mm 3 m/S 741 mmHg 18%
    19:00 +42°C° 0 mm 3 m/S 742 mmHg 19%
    20:00 +39°C° 0 mm 5 m/S 742 mmHg 26%
    21:00 +36°C° 0 mm 6 m/S 743 mmHg 33%
    22:00 +33°C° 0 mm 8 m/S 744 mmHg 41%
    23:00 +32°C° 0 mm 7 m/S 744 mmHg 43%

    übermorgen, 26 Januar, Samstag

    Zeit Temperatur Niederschläge Wind Luftdruck Luftfeuchtigkeit
    00:00 +30°C° 0 mm 6 m/S 744 mmHg 45%
    01:00 +30°C° 0 mm 4 m/S 744 mmHg 48%
    02:00 +29°C° 0.1 mm 4 m/S 744 mmHg 52%
    03:00 +28°C° 0.1 mm 3 m/S 743 mmHg 57%
    04:00 +27°C° 0.1 mm 3 m/S 743 mmHg 61%
    05:00 +27°C° 0 mm 3 m/S 744 mmHg 63%
    06:00 +26°C° 0 mm 3 m/S 744 mmHg 64%
    07:00 +26°C° 0 mm 2 m/S 744 mmHg 66%
    08:00 +28°C° 0 mm 2 m/S 744 mmHg 58%
    09:00 +30°C° 0 mm 1 m/S 744 mmHg 51%
    10:00 +32°C° 0 mm 1 m/S 743 mmHg 44%
    11:00 +34°C° 0.1 mm 2 m/S 743 mmHg 39%
    12:00 +36°C° 0.1 mm 3 m/S 743 mmHg 33%
    13:00 +38°C° 0.1 mm 4 m/S 742 mmHg 28%
    14:00 +40°C° 0 mm 4 m/S 742 mmHg 27%
    15:00 +40°C° 0 mm 5 m/S 741 mmHg 25%
    16:00 +41°C° 0 mm 5 m/S 741 mmHg 24%
    17:00 +40°C° 0 mm 5 m/S 741 mmHg 24%
    18:00 +39°C° 0 mm 5 m/S 741 mmHg 24%
    19:00 +37°C° 0 mm 5 m/S 742 mmHg 24%
    20:00 +34°C° 0 mm 5 m/S 742 mmHg 33%
    21:00 +30°C° 0 mm 6 m/S 743 mmHg 41%
    22:00 +27°C° 0 mm 7 m/S 744 mmHg 50%
    23:00 +24°C° 0 mm 6 m/S 744 mmHg 56%

    27 Januar, Sonntag

    Zeit Temperatur Niederschläge Wind Luftdruck Luftfeuchtigkeit
    00:00 +22°C° 0 mm 6 m/S 744 mmHg 62%
    01:00 +21°C° 0 mm 5 m/S 744 mmHg 68%
    02:00 +20°C° 0 mm 5 m/S 745 mmHg 69%
    03:00 +20°C° 0 mm 5 m/S 745 mmHg 70%
    04:00 +19°C° 0 mm 6 m/S 745 mmHg 70%
    05:00 +19°C° 0 mm 5 m/S 745 mmHg 69%
    06:00 +19°C° 0 mm 5 m/S 745 mmHg 67%
    07:00 +19°C° 0 mm 5 m/S 745 mmHg 65%
    08:00 +21°C° 0 mm 5 m/S 746 mmHg 56%
    09:00 +23°C° 0 mm 4 m/S 746 mmHg 46%
    10:00 +26°C° 0 mm 4 m/S 746 mmHg 37%
    11:00 +28°C° 0 mm 4 m/S 746 mmHg 31%
    12:00 +30°C° 0 mm 4 m/S 746 mmHg 25%
    13:00 +32°C° 0 mm 4 m/S 746 mmHg 20%
    14:00 +33°C° 0 mm 4 m/S 746 mmHg 18%
    15:00 +34°C° 0 mm 3 m/S 745 mmHg 17%
    16:00 +34°C° 0 mm 3 m/S 745 mmHg 15%
    17:00 +33°C° 0 mm 3 m/S 745 mmHg 19%
    18:00 +30°C° 0 mm 4 m/S 745 mmHg 23%
    19:00 +29°C° 0 mm 4 m/S 746 mmHg 26%
    20:00 +27°C° 0 mm 4 m/S 746 mmHg 29%
    21:00 +26°C° 0 mm 4 m/S 747 mmHg 33%
    22:00 +25°C° 0 mm 5 m/S 747 mmHg 36%
    23:00 +23°C° 0 mm 4 m/S 747 mmHg 42%

    28 Januar, Montag

    Zeit Temperatur Niederschläge Wind Luftdruck Luftfeuchtigkeit
    00:00 +22°C° 0 mm 4 m/S 747 mmHg 47%
    01:00 +21°C° 0 mm 4 m/S 747 mmHg 53%
    02:00 +20°C° 0 mm 4 m/S 747 mmHg 57%
    03:00 +20°C° 0 mm 3 m/S 747 mmHg 60%
    04:00 +19°C° 0 mm 3 m/S 747 mmHg 64%
    05:00 +19°C° 0 mm 3 m/S 747 mmHg 64%
    06:00 +20°C° 0 mm 3 m/S 747 mmHg 65%
    07:00 +20°C° 0 mm 3 m/S 748 mmHg 65%
    08:00 +24°C° 0 mm 2 m/S 748 mmHg 55%
    09:00 +26°C° 0 mm 1 m/S 748 mmHg 45%
    10:00 +27°C° 0 mm 0 m/S 748 mmHg 35%
    11:00 +30°C° 0 mm 1 m/S 748 mmHg 30%
    12:00 +32°C° 0 mm 2 m/S 747 mmHg 25%
    13:00 +34°C° 0 mm 3 m/S 747 mmHg 20%
    14:00 +35°C° 0 mm 3 m/S 747 mmHg 18%
    15:00 +35°C° 0 mm 3 m/S 746 mmHg 16%
    16:00 +36°C° 0 mm 3 m/S 746 mmHg 14%
    17:00 +34°C° 0 mm 3 m/S 746 mmHg 16%
    18:00 +32°C° 0 mm 2 m/S 747 mmHg 17%
    19:00 +31°C° 0 mm 2 m/S 747 mmHg 19%
    20:00 +30°C° 0 mm 1 m/S 747 mmHg 20%
    21:00 +28°C° 0 mm 1 m/S 748 mmHg 22%
    22:00 +27°C° 0 mm 1 m/S 749 mmHg 23%
    23:00 +26°C° 0 mm 2 m/S 748 mmHg 29%

    29 Januar, Dienstag

    Zeit Temperatur Niederschläge Wind Luftdruck Luftfeuchtigkeit
    00:00 +24°C° 0 mm 3 m/S 748 mmHg 35%
    01:00 +22°C° 0 mm 3 m/S 748 mmHg 41%
    02:00 +21°C° 0 mm 3 m/S 748 mmHg 43%
    03:00 +21°C° 0 mm 3 m/S 748 mmHg 45%
    04:00 +21°C° 0 mm 2 m/S 747 mmHg 46%
    05:00 +21°C° 0 mm 2 m/S 748 mmHg 43%
    06:00 +23°C° 0 mm 2 m/S 748 mmHg 40%
    07:00 +24°C° 0 mm 2 m/S 749 mmHg 38%
    08:00 +28°C° 0 mm 1 m/S 749 mmHg 31%
    09:00 +31°C° 0 mm 1 m/S 749 mmHg 25%
    10:00 +35°C° 0 mm 1 m/S 749 mmHg 18%
    11:00 +36°C° 0 mm 1 m/S 748 mmHg 18%
    12:00 +38°C° 0 mm 2 m/S 748 mmHg 18%
    13:00 +39°C° 0 mm 3 m/S 747 mmHg 17%
    14:00 +38°C° 0 mm 3 m/S 747 mmHg 18%
    15:00 +38°C° 0 mm 4 m/S 746 mmHg 19%
    16:00 +38°C° 0 mm 4 m/S 746 mmHg 20%
    17:00 +37°C° 0 mm 3 m/S 746 mmHg 23%
    18:00 +36°C° 0 mm 2 m/S 746 mmHg 25%
    19:00 +34°C° 0 mm 1 m/S 747 mmHg 27%
    20:00 +32°C° 0 mm 2 m/S 747 mmHg 30%
    21:00 +30°C° 0 mm 2 m/S 747 mmHg 33%
    22:00 +29°C° 0 mm 3 m/S 748 mmHg 36%
    23:00 +28°C° 0 mm 3 m/S 747 mmHg 39%
    Mehr zeigen